Weather in Katayevo

Russia / Zabaykalsky Krai     50°56′49″N   108°39′43″E
temp.,
°C
wind,
m/s
gust,
m/s
humid.,
%
clouds,
%
prec.,
mm/h
press.,
hPa
HPBL,
m
19 april, mon
mon1900:00−3nne2236100 0.0 102244
03:00−4ne113857 0.0 102210
06:00−6ne11445 0.0 102210
09:000ese11305 0.0 1021250
12:00+8sw13217 0.0 1016822
15:00+14wsw271761 0.0 10101940
18:00+14wsw58195 0.0 10082313
21:00+8s21355 0.0 100711
20 april, tue
tue2000:00+4sse114929 0.0 100710
03:00+4sse1149100 0.0 100512
06:00+4nnw005078 0.0 100410
09:00+7nw363951 0.0 1007509
12:00+11nw23325 0.0 10071024
15:00+15wnw232417 0.0 10041402
18:00+16nnw23235 0.0 10021465
21:00+7n484290 0.0 1005376
21 april, wed
wed2100:00+3nne2355100 0.0 100880
03:00+1nne22635 0.0 100733
06:00−2nw23666 0.0 101059
09:00+1nnw225599 0.0 1012541
12:00+5nw3441100 0.0 10111207
15:00+8nw543463 0.0 10101650
18:00+4nnw664273 0.0 10141340
21:00−1nnw476091 0.0 1019792
22 april, thu
thu2200:00−2n3851100 0.4 1023971
03:00−3n2644100 0.4 1025767
06:00−5nnw115096 0.1 102811
09:00−2n343547 0.1 1029915
12:00+3nne3321100 0.0 10271360
15:00+6nne3416100 0.0 10241695
18:00+4n3524100 0.8 1026677
21:00+2n2340100 1.5 102978
23 april, fri
fri2300:000nw1359100 2.0 1033120
03:00−2n3996100 6.0 1036519
06:00−3nne31092100 1.5 1038541
09:00−1ne4783100 1.7 1040780
12:00+2ne4667100 0.1 10401227
15:00+5ne5659100 0.1 10391579
18:00+5ne455553 0.0 10391243
21:000nne2682100 0.0 1041118